Location: Althorst
(53.6379°N, 10.7715°E)
Time: 03:04:40
(UTC+00:00)

ATLAS 2AS CENTAUR R/B - Pass Details

Date: 10 December 2019
Orbit: 927 x 1285 km, 63.7° (Epoch: 06 January)

Event Time Altitude Azimuth Distance (km) Brightness Sun altitude
Rises 18:40:05 0° 279° (W) 4,262 7.0 -31.6°
Reaches altitude 10° 18:43:10 10° 287° (WNW) 3,290 6.1 -32.0°
Maximum altitude 18:50:39 41° 356° (N) 1,764 3.8 -33.1°
Enters shadow 18:51:25 40° 9° (N) 1,781 3.7 -33.2°
